• En España
  • Lista de países
  • Para 7 días
  • Temperatura del agua
  • Mapa Satelital
  • El tiempo en el mapa
  • Informadores
  • user-avatar
    Iniciar sesión

    Tiempo cada hora Merzouga

    Hoy, 17 Agosto, Viernes

    Tiempo Temperatura Precipitaciones Viento Presión Humedad
    00:00 +31°C° 0,5 mm 10 mps 699 mmHg 42%
    01:00 +31°C° 0,1 mm 10 mps 699 mmHg 43%
    02:00 +29°C° 0,1 mm 9 mps 699 mmHg 44%
    03:00 +29°C° 0,1 mm 9 mps 699 mmHg 45%
    04:00 +28°C° 0 mm 8 mps 699 mmHg 46%
    05:00 +28°C° 0 mm 8 mps 699 mmHg 47%
    06:00 +28°C° 0 mm 7 mps 699 mmHg 47%
    07:00 +29°C° 0 mm 7 mps 699 mmHg 44%
    08:00 +30°C° 0 mm 7 mps 700 mmHg 40%
    09:00 +32°C° 0 mm 7 mps 700 mmHg 36%
    10:00 +34°C° 0 mm 7 mps 700 mmHg 33%
    11:00 +35°C° 0 mm 7 mps 700 mmHg 29%
    12:00 +38°C° 0 mm 6 mps 700 mmHg 25%
    13:00 +39°C° 0 mm 6 mps 700 mmHg 23%
    14:00 +40°C° 0 mm 5 mps 699 mmHg 20%
    15:00 +41°C° 0 mm 4 mps 699 mmHg 17%
    16:00 +41°C° 0 mm 4 mps 698 mmHg 16%
    17:00 +40°C° 0 mm 3 mps 698 mmHg 15%
    18:00 +40°C° 0 mm 3 mps 698 mmHg 14%
    19:00 +39°C° 0 mm 3 mps 698 mmHg 15%
    20:00 +38°C° 0 mm 4 mps 698 mmHg 17%
    21:00 +37°C° 0 mm 4 mps 699 mmHg 19%
    22:00 +36°C° 0 mm 4 mps 699 mmHg 20%
    23:00 +36°C° 0 mm 4 mps 699 mmHg 21%

    Mañana, 18 Agosto, Sábado

    Tiempo Temperatura Precipitaciones Viento Presión Humedad
    00:00 +35°C° 0 mm 3 mps 699 mmHg 22%
    01:00 +34°C° 0 mm 4 mps 699 mmHg 26%
    02:00 +33°C° 0 mm 5 mps 699 mmHg 29%
    03:00 +32°C° 0 mm 6 mps 698 mmHg 33%
    04:00 +32°C° 0 mm 7 mps 698 mmHg 34%
    05:00 +32°C° 0 mm 8 mps 699 mmHg 35%
    06:00 +31°C° 0 mm 8 mps 699 mmHg 36%
    07:00 +33°C° 0 mm 9 mps 699 mmHg 33%
    08:00 +34°C° 0 mm 9 mps 700 mmHg 30%
    09:00 +35°C° 0 mm 9 mps 700 mmHg 27%
    10:00 +37°C° 0 mm 9 mps 700 mmHg 23%
    11:00 +39°C° 0 mm 8 mps 700 mmHg 20%
    12:00 +40°C° 0 mm 7 mps 701 mmHg 17%
    13:00 +42°C° 0 mm 6 mps 700 mmHg 15%
    14:00 +44°C° 0 mm 6 mps 700 mmHg 13%
    15:00 +45°C° 0 mm 5 mps 700 mmHg 11%
    16:00 +43°C° 0 mm 5 mps 699 mmHg 11%
    17:00 +43°C° 0 mm 5 mps 699 mmHg 11%
    18:00 +43°C° 0 mm 5 mps 699 mmHg 10%
    19:00 +42°C° 0 mm 4 mps 699 mmHg 11%
    20:00 +40°C° 0 mm 3 mps 700 mmHg 12%
    21:00 +39°C° 0 mm 2 mps 700 mmHg 13%
    22:00 +38°C° 0 mm 2 mps 700 mmHg 15%
    23:00 +37°C° 0 mm 2 mps 700 mmHg 16%

    Pasado mañana, 19 Agosto, Domingo

    Tiempo Temperatura Precipitaciones Viento Presión Humedad
    00:00 +35°C° 0 mm 1 mps 700 mmHg 17%
    01:00 +36°C° 0 mm 2 mps 700 mmHg 18%
    02:00 +35°C° 0 mm 2 mps 700 mmHg 18%
    03:00 +35°C° 0 mm 2 mps 700 mmHg 19%
    04:00 +34°C° 0 mm 3 mps 700 mmHg 22%
    05:00 +33°C° 0 mm 4 mps 700 mmHg 24%
    06:00 +33°C° 0 mm 4 mps 700 mmHg 27%
    07:00 +34°C° 0 mm 5 mps 701 mmHg 27%
    08:00 +35°C° 0 mm 7 mps 701 mmHg 26%
    09:00 +37°C° 0 mm 8 mps 702 mmHg 26%
    10:00 +39°C° 0 mm 7 mps 702 mmHg 23%
    11:00 +40°C° 0 mm 6 mps 702 mmHg 20%
    12:00 +42°C° 0 mm 6 mps 702 mmHg 17%
    13:00 +42°C° 0 mm 5 mps 702 mmHg 16%
    14:00 +43°C° 0 mm 5 mps 701 mmHg 14%
    15:00 +45°C° 0 mm 5 mps 701 mmHg 12%
    16:00 +45°C° 0 mm 5 mps 701 mmHg 12%
    17:00 +45°C° 0 mm 5 mps 701 mmHg 11%
    18:00 +43°C° 0 mm 5 mps 700 mmHg 10%
    19:00 +42°C° 0 mm 4 mps 700 mmHg 12%
    20:00 +40°C° 0 mm 3 mps 701 mmHg 13%
    21:00 +39°C° 0 mm 2 mps 701 mmHg 14%
    22:00 +38°C° 0 mm 2 mps 701 mmHg 15%
    23:00 +36°C° 0 mm 1 mps 700 mmHg 16%

    20 Agosto, Lunes

    Tiempo Temperatura Precipitaciones Viento Presión Humedad
    00:00 +36°C° 0 mm 1 mps 700 mmHg 17%
    01:00 +35°C° 0 mm 1 mps 700 mmHg 18%
    02:00 +35°C° 0 mm 1 mps 699 mmHg 19%
    03:00 +34°C° 0 mm 1 mps 699 mmHg 20%
    04:00 +35°C° 0 mm 2 mps 699 mmHg 22%
    05:00 +34°C° 0 mm 3 mps 700 mmHg 24%
    06:00 +34°C° 0 mm 3 mps 700 mmHg 25%
    07:00 +35°C° 0 mm 5 mps 700 mmHg 28%
    08:00 +35°C° 0 mm 6 mps 701 mmHg 30%
    09:00 +36°C° 0 mm 7 mps 701 mmHg 33%
    10:00 +39°C° 0 mm 6 mps 701 mmHg 28%
    11:00 +40°C° 0 mm 5 mps 701 mmHg 23%
    12:00 +42°C° 0 mm 4 mps 701 mmHg 18%
    13:00 +42°C° 0 mm 3 mps 701 mmHg 16%
    14:00 +42°C° 0 mm 2 mps 700 mmHg 14%
    15:00 +42°C° 0 mm 2 mps 700 mmHg 12%
    16:00 +42°C° 0 mm 2 mps 700 mmHg 12%
    17:00 +43°C° 0 mm 3 mps 700 mmHg 12%
    18:00 +43°C° 0 mm 3 mps 699 mmHg 12%
    19:00 +42°C° 0 mm 3 mps 700 mmHg 14%
    20:00 +40°C° 0 mm 3 mps 700 mmHg 17%
    21:00 +39°C° 0 mm 3 mps 700 mmHg 19%
    22:00 +38°C° 0 mm 4 mps 700 mmHg 22%
    23:00 +37°C° 0 mm 4 mps 700 mmHg 24%

    21 Agosto, Martes

    Tiempo Temperatura Precipitaciones Viento Presión Humedad
    00:00 +36°C° 0 mm 5 mps 700 mmHg 26%
    01:00 +35°C° 0 mm 5 mps 700 mmHg 28%
    02:00 +35°C° 0 mm 5 mps 699 mmHg 30%
    03:00 +34°C° 0 mm 5 mps 699 mmHg 32%
    04:00 +34°C° 0 mm 5 mps 699 mmHg 33%
    05:00 +33°C° 0 mm 5 mps 700 mmHg 34%
    06:00 +33°C° 0 mm 5 mps 700 mmHg 35%
    07:00 +34°C° 0 mm 6 mps 700 mmHg 33%
    08:00 +35°C° 0 mm 6 mps 700 mmHg 31%
    09:00 +36°C° 0 mm 7 mps 701 mmHg 29%
    10:00 +39°C° 0 mm 6 mps 701 mmHg 25%
    11:00 +40°C° 0 mm 5 mps 701 mmHg 21%
    12:00 +42°C° 0 mm 4 mps 700 mmHg 18%
    13:00 +43°C° 0 mm 4 mps 700 mmHg 16%
    14:00 +43°C° 0 mm 3 mps 699 mmHg 14%
    15:00 +44°C° 0 mm 3 mps 699 mmHg 12%
    16:00 +44°C° 0 mm 4 mps 699 mmHg 12%
    17:00 +44°C° 0 mm 4 mps 699 mmHg 12%
    18:00 +43°C° 0 mm 5 mps 698 mmHg 12%
    19:00 +42°C° 0 mm 4 mps 699 mmHg 14%
    20:00 +40°C° 0 mm 3 mps 699 mmHg 16%
    21:00 +39°C° 0 mm 2 mps 699 mmHg 18%
    22:00 +39°C° 0 mm 2 mps 699 mmHg 19%
    23:00 +38°C° 0 mm 2 mps 699 mmHg 20%

    22 Agosto, Miércoles

    Tiempo Temperatura Precipitaciones Viento Presión Humedad
    00:00 +36°C° 0 mm 1 mps 699 mmHg 22%
    01:00 +37°C° 0 mm 3 mps 699 mmHg 24%
    02:00 +36°C° 0 mm 4 mps 699 mmHg 26%
    03:00 +35°C° 0 mm 6 mps 699 mmHg 29%
    04:00 +34°C° 0 mm 7 mps 699 mmHg 33%
    05:00 +33°C° 0 mm 9 mps 699 mmHg 38%
    06:00 +31°C° 0 mm 10 mps 699 mmHg 42%
    07:00 +32°C° 0 mm 9 mps 700 mmHg 40%
    08:00 +33°C° 0 mm 9 mps 700 mmHg 37%
    09:00 +34°C° 0 mm 8 mps 701 mmHg 34%
    10:00 +35°C° 0 mm 7 mps 701 mmHg 31%
    11:00 +38°C° 0 mm 6 mps 701 mmHg 27%
    12:00 +39°C° 0 mm 5 mps 701 mmHg 24%
    13:00 +40°C° 0 mm 4 mps 700 mmHg 21%
    14:00 +41°C° 0 mm 4 mps 700 mmHg 19%
    15:00 +42°C° 0 mm 3 mps 699 mmHg 17%
    16:00 +42°C° 0 mm 3 mps 699 mmHg 16%
    17:00 +42°C° 0 mm 3 mps 699 mmHg 16%
    18:00 +42°C° 0 mm 3 mps 699 mmHg 15%
    19:00 +40°C° 0 mm 3 mps 699 mmHg 17%
    20:00 +40°C° 0 mm 3 mps 700 mmHg 19%
    21:00 +39°C° 0 mm 3 mps 700 mmHg 21%
    22:00 +38°C° 0 mm 3 mps 700 mmHg 23%
    23:00 +37°C° 0 mm 2 mps 700 mmHg 24%
    Mostrar más